MEASAT-3A

Last updated on Sat Apr 13 2024 01:02:37 GMT+0100 (British Summer Time)

1 35362U 09032A 24103.64500779 -.00000304 00000+0 00000+0 0 9997 2 35362 0.0234 177.4313 0000149 276.9115 94.3427 1.01105294 58
UTC large
Height (km)
Speed (km/s)
/
Latitude / Longitude
Inclination (degrees)
Orbital Period (minutes)
Azimuth
Elevation
Range (km)
Doppler Factor

Next 0 passes for location: London (51.5072 / 0.1276)

Sorry there are no passes over London.